Weather History for Burnet, TX

Change the Weather History Date:

Monday, May 27, 2013

  Actual Average Record
Temperature  
Mean Temperature 77 °F -  
Max Temperature 87 °F 85 °F 98 °F (2011)
Min Temperature 70 °F 65 °F 60 °F (2002)
Cooling Degree Days 12    
Growing Degree Days 27 (Base 50)    
Moisture  
Dew Point 67 °F    
Average Humidity 76    
Maximum Humidity 87    
Minimum Humidity 55    
Precipitation  
Precipitation 0.00 in - - ()
Sea Level Pressure  
Sea Level Pressure 29.94 in    
Wind  
Wind Speed 10 mph (South)    
Max Wind Speed 15 mph    
Max Gust Speed 25 mph    
Visibility 10 miles    
Events      
Averages and records for this station are not official NWS values.
T = Trace of Precipitation, MM = Missing Value Source: NWS Daily Summary

Daily Weather History Graph

Daily Weather History Graph

Search for Another Location

Airport:

Trip Planner

Search our weather history database for the weather conditions in past years. The results will help you decide how hot, cold, wet, or windy it might be!

Date:

Astronomy

May. 27, 2013 Rise Set
Actual Time 6:32 AM CDT 8:28 PM CDT
Civil Twilight 6:04 AM CDT 8:55 PM CDT
Nautical Twilight 5:32 AM CDT 9:28 PM CDT
Astronomical Twilight 4:57 AM CDT 10:03 PM CDT
Moon 11:13 PM CDT (5/27) 9:08 AM CDT (5/27)
Length of Visible Light 14h 50m
Length of Day
13h 56m
Waning Gibbous, 91% of the Moon is Illuminated
May 27
Waning Gibbous
May 31
Last Quarter
Jun 8
New
Jun 16
First Quarter
Jun 23
Full

Hourly Weather History & Observations

Time (CDT) Temp. Heat Index Dew Point Humidity Pressure Visibility Wind Dir Wind Speed Gust Speed Precip Events Conditions
12:53 AM 72.0 °F - 66.9 °F 84% 29.99 in 10.0 mi South 8.1 mph - N/A   Partly Cloudy
1:10 AM 72.0 °F - 66.9 °F 84% 30.03 in 10.0 mi South 8.1 mph - N/A   Mostly Cloudy
1:53 AM 72.0 °F - 66.9 °F 84% 29.98 in 10.0 mi South 11.5 mph 19.6 mph N/A   Overcast
2:53 AM 71.1 °F - 66.0 °F 84% 29.96 in 10.0 mi South 12.7 mph 19.6 mph N/A   Mostly Cloudy
3:21 AM 71.1 °F - 66.0 °F 84% 30.00 in 10.0 mi SSE 10.4 mph 18.4 mph N/A   Overcast
3:53 AM 70.0 °F - 66.0 °F 87% 29.96 in 10.0 mi South 6.9 mph - N/A   Overcast
4:53 AM 71.1 °F - 66.0 °F 84% 29.95 in 10.0 mi South 6.9 mph - N/A   Overcast
5:53 AM 71.1 °F - 66.0 °F 84% 29.94 in 9.0 mi South 9.2 mph - N/A   Overcast
6:06 AM 71.1 °F - 66.0 °F 84% 30.00 in 9.0 mi South 8.1 mph - N/A   Overcast
6:28 AM 71.1 °F - 66.9 °F 87% 30.00 in 9.0 mi South 10.4 mph - N/A   Overcast
6:53 AM 71.1 °F - 66.9 °F 87% 29.95 in 8.0 mi South 9.2 mph - N/A   Overcast
7:53 AM 71.1 °F - 66.9 °F 87% 29.95 in 9.0 mi South 9.2 mph - N/A   Overcast
8:40 AM 73.0 °F - 66.9 °F 81% 30.00 in 9.0 mi South 9.2 mph - N/A   Overcast
8:50 AM 73.4 °F - 66.2 °F 78% 30.00 in 9.0 mi SSE 8.1 mph 17.3 mph N/A   Mostly Cloudy
8:53 AM 73.0 °F - 66.9 °F 81% 29.95 in 9.0 mi South 9.2 mph 17.3 mph N/A   Mostly Cloudy
9:53 AM 73.9 °F - 66.0 °F 76% 29.96 in 10.0 mi South 10.4 mph 25.3 mph N/A   Overcast
10:53 AM 75.0 °F - 66.9 °F 76% 29.98 in 10.0 mi South 11.5 mph - N/A   Overcast
11:53 AM 75.0 °F - 66.9 °F 76% 29.98 in 9.0 mi South 15.0 mph 20.7 mph N/A   Overcast
12:43 PM 77.0 °F - 66.9 °F 71% 30.01 in 10.0 mi South 12.7 mph 19.6 mph N/A   Overcast
12:53 PM 77.0 °F - 66.9 °F 71% 29.96 in 10.0 mi South 13.8 mph 18.4 mph N/A   Overcast
1:53 PM 78.1 °F - 66.9 °F 68% 29.95 in 10.0 mi South 13.8 mph - N/A   Overcast
2:53 PM 82.9 °F 86.5 °F 69.1 °F 63% 29.92 in 10.0 mi SSW 10.4 mph - N/A   Overcast
3:53 PM 84.9 °F 87.6 °F 66.9 °F 55% 29.88 in 10.0 mi South 15.0 mph 24.2 mph N/A   Scattered Clouds
4:53 PM 84.9 °F 87.6 °F 66.9 °F 55% 29.86 in 10.0 mi South 13.8 mph 19.6 mph N/A   Mostly Cloudy
5:53 PM 84.0 °F 87.0 °F 68.0 °F 58% 29.83 in 10.0 mi SSE 9.2 mph - N/A   Scattered Clouds
6:53 PM 84.0 °F 87.0 °F 68.0 °F 58% 29.81 in 10.0 mi South 10.4 mph 23.0 mph N/A   Scattered Clouds
7:53 PM 82.0 °F 85.5 °F 69.1 °F 65% 29.83 in 10.0 mi SSE 9.2 mph 19.6 mph N/A   Partly Cloudy
8:53 PM 80.1 °F 82.9 °F 69.1 °F 69% 29.84 in 10.0 mi SSE 9.2 mph - N/A   Clear
9:53 PM 78.1 °F - 69.1 °F 74% 29.85 in 10.0 mi SSE 9.2 mph 20.7 mph N/A   Clear
10:53 PM 77.0 °F - 68.0 °F 74% 29.86 in 10.0 mi SSE 10.4 mph 21.9 mph N/A   Clear
11:53 PM 75.0 °F - 66.9 °F 76% 29.88 in 10.0 mi SSE 9.2 mph 20.7 mph N/A   Clear